Location: Unspecified
(0.0000°N, 0.0000°E)
Time: 23:41:48
(UTC+00:00)

Vanguard 1 - Pass Details

Date: 16 February 2018
Orbit: 650 x 3833 km, 34.3° (Epoch: 26 May)

Event Time Altitude Azimuth Distance (km) Brightness Sun altitude
Rises 05:31:02 0° 236° (SW) 5,999 13.7 -10.5°
Reaches altitude 10° 05:37:02 10° 217° (SW) 5,582 13.7 -9.0°
Maximum altitude 05:47:53 18° 180° (S) 5,726 14.1 -6.4°
Drops below altitude 10° 06:01:10 10° 143° (SE) 6,899 15.2 -3.2°
Sets 06:10:25 0° 126° (SE) 7,950 16.2 -0.9°
